SPACEMOBILE-005

Last updated on Fri Sep 11 2026 00:02:08 GMT+0000 (Coordinated Universal Time)

1 61046U 24163B 26253.37788427 .00002921 00000+0 14658-3 0 9997 2 61046 52.9764 277.7295 0008758 18.1402 341.9903 15.20512619110727
UTC large
Height (km)
Speed (km/s)
/
Latitude / Longitude
Inclination (degrees)
Orbital Period (minutes)
Azimuth
Elevation
Range (km)
Doppler Factor

Next 0 passes for location: London (51.5072 / 0.1276)

No passes found over London.
SPACEMOBILE-005